Redwood Falls, MN

5:12 AM CDT on July 28, 2017 (GMT -0500)
Redwood Falls Municipal

Weather History for KRWF - August, 2013

Change the Weather History Date:

Sunday, August 11, 2013

  Actual Average Record
Temperature  
Mean Temperature 72 °F -  
Max Temperature 82 °F 82 °F 101 °F (1936)
Min Temperature 64 °F 57 °F 46 °F (1968)
Cooling Degree Days 6    
Growing Degree Days 22 (Base 50)    
Moisture  
Dew Point 63 °F    
Average Humidity 81    
Maximum Humidity 97    
Minimum Humidity 54    
Precipitation  
Precipitation 0.00 in - - ()
Sea Level Pressure  
Sea Level Pressure 30.04 in    
Wind  
Wind Speed 4 mph (SE)    
Max Wind Speed 8 mph    
Max Gust Speed -    
Visibility 9 miles    
Events Rain    
Averages and records for this station are not official NWS values.
T = Trace of Precipitation, MM = Missing Value Source: NWS Daily Summary

Daily Weather History Graph

Daily Weather History Graph

Search for Another Location

Airport or City:

Trip Planner

Search our weather history database for the weather conditions in past years. The results will help you decide how hot, cold, wet, or windy it might be!

Date:

Astronomy

Aug. 11, 2013 Rise Set
Actual Time 6:18 AM CDT 8:31 PM CDT
Civil Twilight 5:46 AM CDT 9:03 PM CDT
Nautical Twilight 5:06 AM CDT 9:42 PM CDT
Astronomical Twilight 4:22 AM CDT 10:26 PM CDT
Moon 11:22 AM CDT (8/11) 10:32 PM CDT (8/11)
Length of Visible Light 15h 16m
Length of Day
14h 12m
Waxing Crescent, 22% of the Moon is Illuminated
Aug 11
Waxing Crescent
Aug 14
First Quarter
Aug 20
Full
Aug 28
Last Quarter
Sep 5
New

Hourly Weather History & Observations

Time (CDT) Temp. Dew Point Humidity Pressure Visibility Wind Dir Wind Speed Gust Speed Precip Events Conditions
12:53 AM 64.9 °F 64.0 °F 97% 30.07 in 9.0 mi South 4.6 mph - N/A   Mostly Cloudy
1:53 AM 66.0 °F 64.0 °F 93% 30.08 in 9.0 mi South 3.5 mph - N/A   Overcast
2:53 AM 66.0 °F 63.0 °F 90% 30.05 in 8.0 mi SSE 6.9 mph - N/A   Overcast
3:27 AM 64.4 °F 62.6 °F 94% 30.06 in 10.0 mi South 8.1 mph - N/A   Overcast
3:53 AM 64.9 °F 63.0 °F 93% 30.04 in 10.0 mi SSE 6.9 mph - N/A   Overcast
4:19 AM 64.4 °F 62.6 °F 94% 30.06 in 10.0 mi SSE 3.5 mph - 0.00 in Rain Light Rain
4:53 AM 64.0 °F 63.0 °F 96% 30.05 in 7.0 mi SE 4.6 mph - 0.00 in   Overcast
5:53 AM 64.0 °F 63.0 °F 96% 30.04 in 7.0 mi ESE 3.5 mph - N/A   Overcast
6:27 AM 64.4 °F 62.6 °F 94% 30.04 in 6.0 mi East 4.6 mph - N/A   Mostly Cloudy
6:53 AM 64.0 °F 63.0 °F 96% 30.04 in 6.0 mi SSE 3.5 mph - N/A   Overcast
7:18 AM 64.4 °F 62.6 °F 94% 30.05 in 5.0 mi SSE 3.5 mph - N/A   Scattered Clouds
7:53 AM 64.9 °F 64.0 °F 97% 30.04 in 7.0 mi SSE 3.5 mph - N/A   Mostly Cloudy
8:16 AM 66.2 °F 62.6 °F 88% 30.05 in 8.0 mi SSW 3.5 mph - N/A   Partly Cloudy
8:51 AM 66.2 °F 64.4 °F 94% 30.06 in 10.0 mi Calm Calm - N/A   Overcast
8:53 AM 66.9 °F 64.0 °F 90% 30.06 in 10.0 mi SW 4.6 mph - N/A   Overcast
9:25 AM 68.0 °F 64.4 °F 88% 30.07 in 10.0 mi Calm Calm - N/A   Mostly Cloudy
9:53 AM 70.0 °F 64.0 °F 81% 30.06 in 10.0 mi Calm Calm - N/A   Mostly Cloudy
10:53 AM 71.1 °F 64.9 °F 81% 30.05 in 10.0 mi North 3.5 mph - N/A   Mostly Cloudy
11:00 AM 71.6 °F 64.4 °F 78% 30.06 in 10.0 mi Calm Calm - N/A   Mostly Cloudy
11:30 AM 71.6 °F 64.4 °F 78% 30.06 in 10.0 mi NNW 4.6 mph - N/A   Overcast
11:53 AM 73.9 °F 64.9 °F 73% 30.05 in 10.0 mi Variable 3.5 mph - N/A   Overcast
12:36 PM 75.2 °F 66.2 °F 73% 30.06 in 10.0 mi Calm Calm - N/A   Mostly Cloudy
12:53 PM 75.0 °F 64.0 °F 69% 30.04 in 10.0 mi Calm Calm - N/A   Partly Cloudy
1:53 PM 79.0 °F 64.0 °F 60% 30.04 in 10.0 mi Variable 4.6 mph - N/A   Scattered Clouds
2:53 PM 79.0 °F 64.9 °F 62% 30.03 in 10.0 mi NE 6.9 mph - N/A   Scattered Clouds
3:53 PM 78.1 °F 64.0 °F 62% 30.03 in 10.0 mi Calm Calm - N/A   Scattered Clouds
4:53 PM 78.1 °F 62.1 °F 58% 30.02 in 10.0 mi North 4.6 mph - N/A   Clear
5:53 PM 79.0 °F 62.1 °F 56% 30.01 in 10.0 mi North 4.6 mph - N/A   Scattered Clouds
6:53 PM 79.0 °F 61.0 °F 54% 30.00 in 10.0 mi North 4.6 mph - N/A   Clear
7:53 PM 75.0 °F 63.0 °F 66% 30.01 in 10.0 mi NNW 3.5 mph - N/A   Clear
8:53 PM 72.0 °F 63.0 °F 73% 30.01 in 10.0 mi North 3.5 mph - N/A   Clear
9:53 PM 70.0 °F 63.0 °F 78% 30.02 in 10.0 mi Calm Calm - N/A   Clear
10:53 PM 66.9 °F 62.1 °F 84% 30.04 in 10.0 mi NNW 4.6 mph - N/A   Clear
11:53 PM 66.0 °F 61.0 °F 84% 30.04 in 10.0 mi NNW 4.6 mph - N/A   Clear